Date,TemperatureHighF,TemperatureAvgF,TemperatureLowF,DewpointHighF,DewpointAvgF,DewpointLowF,HumidityHigh,HumidityAvg,HumidityLow,PressureMaxIn,PressureMinIn,WindSpeedMaxMPH,WindSpeedAvgMPH,GustSpeedMaxMPH,PrecipitationSumIn
2013-1-1,45,38,33,36,32,30,90,81,64,30.52,30.38,8,0,8,0.00
2013-1-2,51,40,35,35,30,23,88,68,41,30.38,30.21,12,0,12,0.00
2013-1-3,50,39,34,37,28,22,92,66,41,30.22,30.11,15,2,15,0.21
2013-1-4,51,45,38,44,41,36,93,87,75,30.32,30.18,21,2,21,0.02
2013-1-5,46,44,41,40,37,33,94,74,62,30.22,30.13,17,3,21,0.10
2013-1-6,46,43,39,41,39,37,94,86,77,30.20,30.00,21,5,21,0.01
2013-1-7,50,46,41,47,43,39,95,90,84,30.17,29.80,28,10,33,0.02
2013-1-8,53,48,42,49,44,39,94,88,83,30.17,29.74,34,7,34,0.69
2013-1-9,51,42,38,48,39,35,93,88,81,29.97,29.68,24,4,26,1.14
2013-1-10,40,37,36,36,34,28,94,87,69,30.14,29.96,0,0,0,0.02
2013-1-11,39,34,32,33,28,24,92,78,61,30.35,30.14,7,0,7,0.00
2013-1-12,37,32,30,30,28,25,95,83,65,30.48,30.34,0,0,0,0.00
2013-1-13,36,33,28,30,28,25,95,83,68,30.52,30.47,0,0,0,0.01
2013-1-14,38,36,34,35,31,27,89,81,72,30.60,30.50,0,0,0,0.00
2013-1-15,42,39,36,36,33,32,90,81,70,30.72,30.59,0,0,0,0.00
2013-1-16,43,37,32,35,33,31,97,86,74,30.70,30.54,0,0,0,0.00
2013-1-17,38,36,32,37,34,31,98,94,88,30.55,30.32,0,0,0,0.00
2013-1-18,39,35,33,37,35,32,98,97,93,30.37,30.28,0,0,0,0.00
2013-1-19,36,35,33,36,34,32,98,97,93,30.42,30.36,0,0,0,0.00
2013-1-20,46,38,33,40,36,31,98,91,75,30.42,30.29,6,0,6,0.00
2013-1-21,39,35,31,36,34,30,98,94,86,30.30,30.16,9,1,9,0.00
2013-1-22,41,37,32,38,35,31,98,93,85,30.17,29.93,0,0,0,0.00
2013-1-23,45,43,40,41,38,32,94,82,61,30.16,29.86,0,0,0,0.27
2013-1-24,46,43,41,42,40,36,94,87,70,30.22,30.07,0,0,0,0.15
2013-1-25,50,47,44,45,43,39,97,88,76,30.08,29.94,0,0,0,0.07
2013-1-26,45,43,42,41,40,38,93,87,82,30.06,29.90,0,0,0,0.20
2013-1-27,43,42,41,40,39,37,94,90,86,30.08,30.01,0,0,0,0.04
2013-1-28,43,42,40,42,40,38,95,92,89,30.11,30.02,0,0,0,0.23
2013-1-29,48,46,43,46,44,41,96,93,90,30.35,30.11,0,0,0,0.28
2013-1-30,49,47,45,48,46,44,99,98,96,30.39,30.34,0,0,0,0.14
2013-1-31,50,48,46,47,46,45,99,94,85,30.42,30.31,0,0,0,0.09